JA3VQW-13 Hirakata JP current weather conditions

sailwx.info

Wind from 285

Air temperature 7.8° C
Dewpoint -13.8° C

Last reported at 2018-Feb-18 08:02 UTC.
Time now 2018-Feb-18 08:35 UTC

Location: N 34°48' E 135°40'.
View on Google Maps.

See reports from other nearby stations

  
Tides and Currents Weather Stations Pressure Air Temp Water Temp Dewpoint Dewpoint Depression Visibility Wind Speed Wind Dir Waves Ship Positions
date/time (UTC)wind fromknots sea level pressurealtimeterstation pressurevisibilityair tempwater tempwave heightnotes
2018-Feb-18 08:02 285 7.8
2018-Feb-18 07:32 270 10.0
2018-Feb-18 07:02 270 10.6
2018-Feb-18 06:32 300 0 gusting 5 11.7
2018-Feb-18 06:02 291 11.1
2018-Feb-18 05:32 292 12.2
2018-Feb-18 05:02 280 4 gusting 5 11.1
2018-Feb-18 04:32 296 0 gusting 1 11.1
2018-Feb-18 04:02 292 1 gusting 5 10.6
2018-Feb-18 03:32 259 11.1
2018-Feb-18 03:02 283 0 gusting 5 9.4
2018-Feb-18 02:32 309 1 8.9
2018-Feb-18 02:02 272 7.8
2018-Feb-18 01:32 135 6.1
2018-Feb-18 01:02 250 4.4
2018-Feb-18 00:32 298 4 gusting 5 2.8
2018-Feb-18 00:02 281 2 gusting 4 2.2
2018-Feb-17 23:47 291 4 gusting 5 2.2
2018-Feb-17 23:32 265 2 gusting 8 1.7
2018-Feb-17 23:02 292 0 gusting 5 1.7
2018-Feb-17 22:32 250 2 gusting 4 1.1
2018-Feb-17 22:02 265 1 gusting 2 1.1
2018-Feb-17 21:32 297 0.6
2018-Feb-17 21:02 294 1 gusting 4 1.1
2018-Feb-17 20:32 236 0.6
2018-Feb-17 20:02 240 0.6
2018-Feb-17 19:32 270 1.1
2018-Feb-17 19:17 273 0 gusting 2 1.1
2018-Feb-17 19:02 284 1.1
2018-Feb-17 18:32 307 1 gusting 4 1.1
2018-Feb-17 18:02 268 1.1
2018-Feb-17 17:32 292 1.1
2018-Feb-17 17:02 294 4 gusting 5 1.7
2018-Feb-17 16:32 287 0 gusting 2 1.7
2018-Feb-17 16:17 292 1.7
2018-Feb-17 16:02 270 1.7
2018-Feb-17 15:32 277 0 gusting 1 1.7
2018-Feb-17 15:02 300 2.2
2018-Feb-17 14:32 292 0 gusting 2 2.2
2018-Feb-17 14:02 312 2.2
2018-Feb-17 13:32 280 2.8
2018-Feb-17 13:02 292 2.8
2018-Feb-17 12:32 308 2.8
2018-Feb-17 12:02 300 1 gusting 4 2.8
2018-Feb-17 11:32 251 1 gusting 2 3.3
2018-Feb-17 11:02 294 2 gusting 5 3.3
2018-Feb-17 10:32 301 4 gusting 7 3.3
2018-Feb-17 10:02 290 4 gusting 2 4.4
2018-Feb-17 09:32 306 2 gusting 4 4.4
2018-Feb-17 09:02 292 2 gusting 4 4.4
2018-Feb-17 08:32 271 5.0
2018-Feb-17 08:02 276 5.0
2018-Feb-17 07:32 269 0 gusting 4 8.3
2018-Feb-17 07:02 301 5 gusting 6 8.3
2018-Feb-17 06:32 255 1 gusting 8 7.8
2018-Feb-17 06:02 262 2 gusting 5 8.3
2018-Feb-17 05:32 287 5 gusting 10 8.3
2018-Feb-17 05:02 283 2 gusting 4 7.8
2018-Feb-17 04:32 309 6 gusting 5 9.4
2018-Feb-17 04:02 300 2 gusting 6 7.8
2018-Feb-17 03:32 304 4 gusting 5 8.3
2018-Feb-17 03:02 297 4 gusting 6 9.4
2018-Feb-17 02:32 292 4 gusting 5 7.8
2018-Feb-17 02:02 270 8.3
2018-Feb-17 01:32 285 5 gusting 6 9.4
2018-Feb-17 01:02 297 4 gusting 5 7.8
2018-Feb-17 00:32 298 4 gusting 6 7.2
2018-Feb-17 00:02 297 4 gusting 5 7.8
2018-Feb-16 23:32 285 1 gusting 4 6.7
2018-Feb-16 23:02 278 2 gusting 2 6.1
2018-Feb-16 22:47 287 4 gusting 2 5.6
2018-Feb-16 22:32 239 5.6
2018-Feb-16 22:02 282 2 gusting 4 5.6
2018-Feb-16 21:32 292 5.6
2018-Feb-16 21:17 292 5.6
2018-Feb-16 21:02 278 5.6
2018-Feb-16 20:32 248 5.6
2018-Feb-16 20:02 248 5.6
2018-Feb-16 19:32 225 5.6
2018-Feb-16 19:17 298 5.6
2018-Feb-16 19:02 135 5.0
2018-Feb-16 18:32 273 5.0
2018-Feb-16 18:02 225 4.4
2018-Feb-16 17:32 135 3.9
2018-Feb-16 17:02 135 4.4
2018-Feb-16 16:32 180 5.0
2018-Feb-16 16:17 270 5.6
2018-Feb-16 16:02 270 5.6
2018-Feb-16 15:32 292 6.7
2018-Feb-16 15:02 225 6.7
2018-Feb-16 14:32 255 7.2
2018-Feb-16 14:17 197 7.8
2018-Feb-16 14:02 225 7.8
2018-Feb-16 13:32 198 7.8
2018-Feb-16 13:02 205 7.8
2018-Feb-16 12:32 215 7.8
2018-Feb-16 12:02 173 7.8
2018-Feb-16 11:32 277 0 gusting 5 8.3
2018-Feb-16 11:02 269 8.3
2018-Feb-16 10:47 272 8.3
2018-Feb-16 10:32 270 8.3
2018-Feb-16 10:02 279 8.9
2018-Feb-16 09:32 274 8.9
2018-Feb-16 09:02 272 1 gusting 1 8.9
2018-Feb-16 08:32 277 1 gusting 4 10.0
2018-Feb-16 08:17 281 10.0
2018-Feb-16 08:02 241 10.6